Weather in Chongjin

North Korea     41°47′13″N   129°47′46″E
temp.,
°C
wind,
m/s
gust,
m/s
humid.,
%
clouds,
%
prec.,
mm/h
press.,
hPa
HPBL,
m
16 april, fri
fri1600:00+6n237466 0.0 101341
03:00+5n237324 0.0 101237
06:00+4n3377100 0.0 101041
09:00+7sw136473 0.0 1008250
12:00+12sse810461 0.0 1006809
15:00+14sse5942100 0.1 1002670
18:00+14wsw58292 0.1 1004735
21:00+8ene22640 0.1 100939
17 april, sat
sat1700:00+6sse117678 0.0 101112
03:00+6n2263100 0.0 101113
06:00+5n2258100 0.0 101220
09:00+10ene2241100 0.0 1012280
12:00+8e3459100 0.0 1011286
15:00+9ene3357100 0.0 1009369
18:00+8ene355992 0.0 1009227
21:00+7n3358100 0.0 100927
18 april, sun
sun1800:00+8wnw4546100 0.0 100873
03:00+8nw5853100 0.0 1007139
06:00+7nw4657100 0.0 100878
09:00+12nnw71335100 0.0 10091272
12:00+15nnw914264 0.0 10071612
15:00+17nnw812244 0.0 10061918
18:00+15nw510300 0.0 10071397
21:00+13nw611360 0.0 1009437
19 april, mon
mon1900:00+11nw46430 0.0 101097
03:00+8wnw22530 0.0 100915
06:00+8wnw32530 0.0 100917
09:00+13s33370 0.0 1009324
12:00+13se44429 0.0 1007422
15:00+13se344410 0.0 1005236
18:00+11ese22581 0.0 100566
21:00+12nw11450 0.0 100716
20 april, tue
tue2000:00+14wnw43340 0.0 100929
03:00+13wnw44350 0.0 101122
06:00+11nw33390 0.0 101314
09:00+16n59300 0.0 10161253
12:00+15ene47380 0.0 1016884
15:00+11se33560 0.0 1018236
18:00+10sse23620 0.0 1020140
21:00+8wsw00690 0.0 102210